WX2NJ Weather Reports


time (UTC)temp
C
wind
direction
speed
KPH
gust
KPH
rain 1hr
cm
rain 24hr
cm
rain mn
cm
humidity
%
barometer
mb
20260905074218 22 175 1.6 3.2 0.00 0.00 0.00 82 1013.1
20260905073714 22 157 1.6 3.2 0.00 0.00 0.00 82 1013.1
20260905073209 22 175 1.6 1.6 0.00 0.00 0.00 82 1013.1
20260905072708 22 172 0.0 3.2 0.00 0.00 0.00 81 1013.1
20260905072204 22 165 0.0 3.2 0.00 0.00 0.00 80 1013.0
20260905071700 23 180 0.0 3.2 0.00 0.00 0.00 79 1013.3
20260905071156 23 180 1.6 3.2 0.00 0.00 0.00 78 1013.0
20260905070651 23 165 0.0 1.6 0.00 0.00 0.00 77 1013.1
20260905070147 23 180 1.6 3.2 0.00 0.00 0.00 77 1013.0
20260905065645 23 175 3.2 3.2 0.00 0.00 0.00 76 1013.3
20260905065140 23 172 0.0 3.2 0.00 0.00 0.00 76 1013.4
20260905064635 23 169 3.2 3.2 0.00 0.00 0.00 74 1013.2
20260905064131 23 180 0.0 3.2 0.00 0.00 0.00 74 1013.4
20260905063629 23 200 1.6 4.8 0.00 0.00 0.00 72 1013.2
20260905063126 23 180 0.0 3.2 0.00 0.00 0.00 74 1013.2
20260905062621 23 180 3.2 3.2 0.00 0.00 0.00 74 1013.3
20260905062120 23 180 0.0 1.6 0.00 0.00 0.00 77 1013.2
20260905061615 23 180 0.0 3.2 0.00 0.00 0.00 77 1013.1
20260905061115 23 172 0.0 3.2 0.00 0.00 0.00 78 1013.1
20260905060610 23 180 0.0 4.8 0.00 0.00 0.00 80 1013.4
20260905060107 23 180 0.0 3.2 0.00 0.00 0.00 80 1013.2
20260905055605 22 191 3.2 3.2 0.00 0.00 0.00 81 1013.3
20260905055100 23 180 1.6 3.2 0.00 0.00 0.00 83 1013.2
20260905054556 23 174 0.0 1.6 0.00 0.00 0.00 83 1013.2
20260905054051 23 173 1.6 4.8 0.00 0.00 0.00 84 1013.4
20260905053550 22 191 0.0 3.2 0.00 0.00 0.00 84 1013.4
20260905053046 23 173 0.0 1.6 0.00 0.00 0.00 85 1013.4
20260905052545 23 166 0.0 1.6 0.00 0.00 0.00 85 1013.4
20260905052040 22 180 0.0 1.6 0.00 0.00 0.00 85 1013.6
20260905051536 22 180 0.0 1.6 0.00 0.00 0.00 85 1013.6
20260905051033 22 180 0.0 1.6 0.00 0.00 0.00 86 1013.6
20260905050528 23 172 0.0 1.6 0.00 0.00 0.00 86 1013.6
20260905050025 22 188 0.0 0.0 0.00 0.00 0.00 87 1013.8
20260905045519 22 180 0.0 1.6 0.00 0.00 0.00 87 1013.7
20260905045014 23 172 0.0 3.2 0.00 0.00 0.00 87 1013.7
20260905044509 23 169 3.2 3.2 0.00 0.00 0.00 87 1013.9
20260905044008 23 157 0.0 3.2 0.00 0.00 0.00 87 1014.0
20260905043508 23 175 0.0 3.2 0.00 0.00 0.00 87 1014.2
20260905043003 23 174 0.0 1.6 0.00 0.00 0.00 87 1014.1
20260905042456 23 180 0.0 1.6 0.00 0.00 0.00 87 1014.0
20260905041952 23 180 0.0 1.6 0.00 0.00 0.00 87 1014.0
20260905041448 23 180 0.0 0.0 0.00 0.00 0.00 87 1014.2
20260905040943 23 180 0.0 1.6 0.00 0.00 0.00 87 1014.1
20260905040442 23 194 1.6 1.6 0.00 0.00 0.00 87 1014.3
20260905035941 23 180 0.0 1.6 0.00 0.05 0.05 87 1014.2
20260905035437 23 165 0.0 3.2 0.00 0.05 0.05 87 1014.2
20260905034934 23 180 0.0 1.6 0.00 0.05 0.05 87 1014.2
20260905034429 23 180 0.0 3.2 0.00 0.05 0.05 87 1014.2
20260905033928 23 180 0.0 3.2 0.00 0.05 0.05 87 1014.0
20260905033423 23 175 3.2 3.2 0.00 0.05 0.05 87 1014.1
20260905032922 23 180 0.0 1.6 0.00 0.05 0.05 87 1013.9
20260905032418 23 180 0.0 3.2 0.00 0.05 0.05 86 1013.9
20260905031912 23 188 0.0 1.6 0.00 0.05 0.05 86 1013.8
20260905031403 24 180 0.0 0.0 0.00 0.05 0.05 86 1013.9
20260905030858 24 180 0.0 3.2 0.00 0.05 0.05 86 1013.9
20260905030348 24 195 0.0 1.6 0.00 0.05 0.05 86 1013.9
20260905025847 24 180 3.2 3.2 0.00 0.05 0.05 85 1013.9
20260905025342 24 174 0.0 3.2 0.00 0.05 0.05 86 1014.0
20260905024839 24 151 0.0 1.6 0.00 0.05 0.05 86 1013.8
20260905024333 24 166 0.0 3.2 0.00 0.05 0.05 86 1013.8
20260905023829 24 157 0.0 1.6 0.00 0.05 0.05 86 1013.9
20260905023325 24 165 1.6 3.2 0.00 0.05 0.05 86 1014.1
20260905022823 24 162 0.0 1.6 0.00 0.05 0.05 86 1013.7
20260905022318 24 180 0.0 3.2 0.00 0.05 0.05 85 1014.1
20260905021819 25 172 0.0 3.2 0.00 0.05 0.05 85 1014.0
20260905021314 24 180 0.0 1.6 0.00 0.05 0.05 85 1013.8
20260905020808 25 165 0.0 3.2 0.00 0.05 0.05 85 1013.9
20260905020303 25 195 1.6 3.2 0.00 0.05 0.05 85 1014.0
20260905015802 25 188 0.0 3.2 0.00 0.05 0.05 84 1013.8
20260905015256 25 188 0.0 0.0 0.00 0.05 0.05 84 1013.9
20260905014755 25 180 0.0 1.6 0.00 0.05 0.05 84 1013.9
20260905014251 25 192 0.0 3.2 0.00 0.05 0.05 84 1014.1
20260905013747 25 180 0.0 1.6 0.00 0.05 0.05 84 1014.0
20260905013243 24 165 1.6 1.6 0.00 0.05 0.05 84 1014.0
20260905012738 24 180 0.0 0.0 0.00 0.05 0.05 84 1014.0
20260905012233 25 180 0.0 3.2 0.00 0.05 0.05 84 1013.9
20260905011730 24 180 0.0 3.2 0.00 0.05 0.05 83 1013.9
20260905011226 24 172 0.0 1.6 0.00 0.05 0.05 83 1013.9
20260905010726 24 180 0.0 1.6 0.00 0.05 0.05 83 1013.8
20260905010221 24 172 0.0 1.6 0.00 0.05 0.05 83 1013.8
20260905005718 25 174 0.0 1.6 0.00 0.05 0.05 83 1013.9
20260905005213 25 165 0.0 0.0 0.00 0.05 0.05 82 1013.8
20260905004707 25 173 0.0 1.6 0.00 0.05 0.05 82 1013.9
20260905004203 25 180 0.0 0.0 0.00 0.05 0.05 82 1013.7
20260905003657 25 165 0.0 1.6 0.00 0.05 0.05 82 1013.7
20260905003154 25 145 0.0 1.6 0.00 0.05 0.05 82 1013.5
20260905002649 25 165 0.0 1.6 0.00 0.05 0.05 82 1013.6
20260905002149 25 180 1.6 1.6 0.00 0.05 0.05 81 1013.2
20260905001644 25 180 0.0 0.0 0.00 0.05 0.05 81 1013.2
20260905001143 25 173 0.0 1.6 0.00 0.05 0.05 80 1013.3
20260905000639 25 180 0.0 0.0 0.00 0.05 0.05 80 1013.4
20260905000135 25 180 0.0 0.0 0.00 0.05 0.05 79 1013.5
20260904235634 25 180 0.0 0.0 0.00 0.05 0.05 79 1013.4
20260904235133 25 180 0.0 0.0 0.00 0.05 0.05 79 1013.4
20260904234629 25 180 0.0 0.0 0.00 0.05 0.05 79 1013.5
20260904234125 25 180 0.0 1.6 0.00 0.05 0.05 78 1013.6
20260904233620 26 180 0.0 0.0 0.00 0.05 0.05 77 1013.7
20260904233116 26 188 0.0 1.6 0.00 0.05 0.05 76 1013.7
20260904232612 26 180 0.0 1.6 0.00 0.05 0.05 76 1013.7
20260904232108 26 180 0.0 1.6 0.00 0.05 0.05 76 1013.6
20260904231604 26 165 1.6 1.6 0.00 0.05 0.05 76 1013.8
20260904231058 26 157 0.0 3.2 0.00 0.05 0.05 75 1013.6
20260904230558 27 180 0.0 1.6 0.00 0.05 0.05 74 1013.4
20260904230054 27 172 0.0 1.6 0.00 0.05 0.05 74 1013.7
20260904225550 27 8 0.0 0.0 0.00 0.05 0.05 73 1013.7
20260904225046 27 145 0.0 0.0 0.00 0.05 0.05 73 1013.6
20260904224540 27 151 0.0 3.2 0.00 0.05 0.05 73 1013.7
20260904224040 27 172 0.0 1.6 0.00 0.05 0.05 73 1013.8
20260904223539 27 166 0.0 1.6 0.00 0.05 0.05 73 1013.7
20260904223035 27 175 3.2 3.2 0.00 0.05 0.05 71 1013.8
20260904222531 27 180 0.0 4.8 0.00 0.05 0.05 71 1013.6
20260904222026 27 172 0.0 1.6 0.00 0.05 0.05 71 1013.6
20260904221521 27 180 0.0 1.6 0.00 0.05 0.05 70 1013.7
20260904221015 27 162 1.6 3.2 0.00 0.05 0.05 70 1013.6
20260904220514 27 195 0.0 3.2 0.00 0.05 0.05 70 1013.7
20260904220011 27 180 0.0 3.2 0.00 0.05 0.05 70 1013.7
20260904215505 28 117 0.0 6.4 0.00 0.05 0.05 66 1013.6
20260904215001 28 157 0.0 6.4 0.00 0.05 0.05 65 1013.9
20260904214456 28 215 0.0 4.8 0.00 0.05 0.05 66 1013.7
20260904213951 28 87 4.8 8.0 0.00 0.05 0.05 64 1013.8
20260904213450 28 180 1.6 4.8 0.00 0.05 0.05 65 1014.0
20260904212946 28 212 0.0 6.4 0.00 0.05 0.05 66 1013.8
20260904212446 29 185 0.0 8.0 0.00 0.05 0.05 66 1013.4
20260904211941 29 135 0.0 4.8 0.00 0.05 0.05 63 1013.6
20260904211440 29 127 3.2 8.0 0.00 0.05 0.05 66 1013.1
20260904210937 30 180 0.0 3.2 0.00 0.05 0.05 63 1013.4
20260904210435 30 78 4.8 4.8 0.00 0.05 0.05 62 1013.3
20260904205931 30 240 0.0 4.8 0.00 0.05 0.05 62 1013.5
20260904205426 29 198 3.2 8.0 0.00 0.05 0.05 64 1013.6
20260904204924 30 234 0.0 6.4 0.00 0.05 0.05 66 1013.7
20260904204419 30 174 1.6 8.0 0.00 0.05 0.05 61 1013.8
20260904203915 30 140 3.2 4.8 0.00 0.05 0.05 62 1013.8
20260904203412 30 60 1.6 8.0 0.00 0.05 0.05 60 1013.9
20260904202907 30 83 1.6 8.0 0.00 0.05 0.05 60 1013.9
20260904202403 30 123 0.0 4.8 0.00 0.05 0.05 62 1013.9
20260904201859 30 180 0.0 4.8 0.00 0.05 0.05 62 1013.9
20260904201353 30 114 0.0 3.2 0.00 0.05 0.05 61 1013.8
20260904200849 30 160 0.0 6.4 0.00 0.05 0.05 61 1014.0
20260904200347 30 262 1.6 4.8 0.00 0.05 0.05 65 1014.0
20260904195842 29 172 1.6 4.8 0.00 0.05 0.05 66 1014.2
20260904195340 28 144 3.2 6.4 0.00 0.05 0.05 67 1014.1
20260904194835 29 169 0.0 4.8 0.00 0.05 0.05 66 1014.1
20260904194335 30 212 3.2 4.8 0.00 0.05 0.05 66 1014.1
20260904193830 30 172 0.0 3.2 0.00 0.05 0.05 64 1014.2
20260904193325 30 180 0.0 3.2 0.00 0.05 0.05 63 1014.4
20260904192821 30 232 0.0 9.7 0.00 0.05 0.05 63 1014.4
20260904192316 31 165 0.0 3.2 0.00 0.05 0.05 64 1014.4
20260904191813 31 180 1.6 4.8 0.00 0.05 0.05 64 1014.4
20260904191309 30 154 0.0 6.4 0.00 0.05 0.05 61 1014.6
20260904190805 30 233 3.2 12.9 0.00 0.05 0.05 62 1014.8
20260904190301 30 90 1.6 3.2 0.00 0.05 0.05 64 1014.4
20260904185756 31 192 3.2 4.8 0.00 0.05 0.05 60 1014.6
20260904185252 30 6 4.8 6.4 0.00 0.05 0.05 64 1014.4
20260904184751 30 200 1.6 4.8 0.00 0.05 0.05 63 1014.6
20260904184246 29 340 0.0 4.8 0.00 0.05 0.05 69 1014.5
20260904183742 30 209 0.0 8.0 0.00 0.05 0.05 65 1014.8
20260904183237 30 15 3.2 11.3 0.00 0.05 0.05 60 1014.6
20260904182732 31 145 1.6 4.8 0.00 0.05 0.05 62 1014.7
20260904182227 31 98 0.0 3.2 0.00 0.05 0.05 60 1014.8
20260904181723 30 254 0.0 6.4 0.00 0.05 0.05 61 1014.9
20260904181222 30 348 1.6 3.2 0.00 0.05 0.05 62 1014.8
20260904180718 30 237 0.0 4.8 0.00 0.05 0.05 63 1014.7
20260904180213 30 150 3.2 4.8 0.00 0.05 0.05 59 1014.6
20260904175712 30 17 4.8 8.0 0.00 0.05 0.05 56 1014.7
20260904175210 31 150 4.8 4.8 0.00 0.05 0.05 59 1014.7
20260904174705 30 143 3.2 8.0 0.00 0.05 0.05 60 1014.8
20260904174201 30 117 4.8 6.4 0.00 0.05 0.05 59 1014.7
20260904173657 30 170 0.0 4.8 0.00 0.05 0.05 60 1014.9
20260904173152 30 48 3.2 9.7 0.00 0.05 0.05 58 1014.8
20260904172648 30 278 1.6 8.0 0.00 0.05 0.05 62 1014.7
20260904172147 30 198 3.2 3.2 0.00 0.05 0.05 61 1014.7
20260904171642 31 221 3.2 12.9 0.00 0.05 0.05 58 1014.6
20260904171138 31 180 0.0 9.7 0.00 0.05 0.05 59 1014.6
20260904170634 31 41 0.0 9.7 0.00 0.05 0.05 54 1014.7
20260904170129 31 170 3.2 4.8 0.00 0.05 0.05 56 1014.7
20260904165628 31 320 3.2 8.0 0.00 0.05 0.05 57 1014.7
20260904165122 31 187 0.0 4.8 0.00 0.05 0.05 58 1014.5
20260904164622 31 111 6.4 8.0 0.00 0.05 0.05 55 1014.5
20260904164118 31 203 0.0 4.8 0.00 0.05 0.05 62 1014.7
20260904163613 31 237 3.2 6.4 0.00 0.05 0.05 58 1014.8
20260904163108 31 7 3.2 8.0 0.00 0.05 0.05 59 1014.7
20260904162602 30 264 0.0 11.3 0.00 0.05 0.05 58 1014.6
20260904162057 30 261 1.6 8.0 0.00 0.05 0.05 60 1014.8
20260904161552 30 26 3.2 9.7 0.00 0.05 0.05 58 1014.7
20260904161048 30 120 0.0 9.7 0.00 0.05 0.05 58 1014.7
20260904160543 31 0 0.0 4.8 0.00 0.05 0.05 58 1015.0
20260904160039 30 352 0.0 8.0 0.00 0.05 0.05 59 1014.9
20260904155538 30 94 0.0 11.3 0.00 0.05 0.05 57 1014.8
20260904155032 30 159 3.2 8.0 0.00 0.05 0.05 59 1014.9
20260904154526 30 21 4.8 6.4 0.00 0.05 0.05 57 1014.8
20260904154021 31 315 3.2 4.8 0.00 0.05 0.05 61 1015.0
20260904153521 30 66 0.0 3.2 0.00 0.05 0.05 59 1015.0
20260904153017 30 311 3.2 14.5 0.00 0.05 0.05 61 1014.9
20260904152513 30 40 4.8 6.4 0.00 0.05 0.05 61 1015.0
20260904152008 30 163 3.2 17.7 0.00 0.05 0.05 65 1014.9
20260904151502 30 270 0.0 11.3 0.00 0.05 0.05 65 1015.0
20260904150956 30 186 4.8 6.4 0.00 0.05 0.05 63 1015.0
20260904150452 30 225 4.8 12.9 0.00 0.05 0.05 63 1015.1
20260904145950 30 125 4.8 9.7 0.00 0.05 0.05 63 1014.9
20260904145446 30 123 4.8 14.5 0.00 0.05 0.05 62 1014.9
20260904144941 30 199 3.2 4.8 0.00 0.05 0.05 66 1014.9
20260904144437 30 185 3.2 6.4 0.00 0.05 0.05 66 1015.0
20260904143932 30 154 9.7 9.7 0.00 0.05 0.05 68 1015.0
20260904143429 30 270 1.6 9.7 0.00 0.05 0.05 67 1014.9
20260904142925 29 210 3.2 8.0 0.00 0.05 0.05 67 1015.0
20260904142421 29 187 0.0 6.4 0.00 0.05 0.05 69 1014.9
20260904141915 30 123 0.0 4.8 0.00 0.05 0.05 71 1015.1
20260904141410 29 120 0.0 6.4 0.00 0.05 0.05 71 1015.3
20260904140907 28 119 3.2 9.7 0.00 0.05 0.05 73 1014.9
20260904140401 28 163 8.0 8.0 0.00 0.05 0.05 73 1015.0
20260904135900 28 105 4.8 9.7 0.00 0.05 0.05 72 1014.9
20260904135355 28 245 0.0 6.4 0.00 0.05 0.05 73 1015.1
20260904134851 28 129 3.2 8.0 0.00 0.05 0.05 75 1015.2
20260904134351 28 194 1.6 6.4 0.00 0.05 0.05 75 1015.0
20260904133845 28 245 0.0 8.0 0.00 0.05 0.05 75 1014.8
20260904133341 28 234 1.6 4.8 0.00 0.05 0.05 77 1014.6
20260904132840 28 148 3.2 6.4 0.00 0.05 0.05 79 1014.7
20260904132336 28 131 4.8 4.8 0.00 0.05 0.05 77 1014.7
20260904131830 27 129 3.2 6.4 0.00 0.05 0.05 79 1014.8
20260904131325 27 90 0.0 4.8 0.00 0.05 0.05 81 1014.8
20260904130820 27 270 1.6 8.0 0.00 0.05 0.05 84 1014.7
20260904130319 26 180 3.2 4.8 0.00 0.05 0.05 86 1014.9
20260904125815 26 192 3.2 4.8 0.00 0.05 0.05 87 1014.8
20260904125311 26 209 0.0 4.8 0.00 0.05 0.05 87 1015.1
20260904124810 25 180 3.2 8.0 0.00 0.05 0.05 87 1014.7
20260904124307 25 77 0.0 4.8 0.00 0.05 0.05 88 1014.7
20260904123802 25 175 1.6 4.8 0.00 0.05 0.05 89 1014.9
20260904123257 25 180 4.8 8.0 0.00 0.05 0.05 89 1014.8
20260904122752 25 229 0.0 4.8 0.00 0.05 0.05 89 1014.9
20260904122251 25 180 0.0 3.2 0.00 0.05 0.05 90 1014.7
20260904121747 24 173 1.6 4.8 0.00 0.05 0.05 90 1014.9
20260904121243 24 190 0.0 3.2 0.00 0.05 0.05 91 1014.6
20260904120739 24 175 3.2 4.8 0.00 0.05 0.05 91 1014.6
20260904120235 24 195 3.2 6.4 0.00 0.05 0.05 92 1014.8
20260904115735 24 161 0.0 4.8 0.00 0.05 0.05 92 1014.8
20260904115229 23 154 0.0 4.8 0.00 0.05 0.05 92 1014.8
20260904114725 23 97 1.6 4.8 0.00 0.05 0.05 92 1014.6
20260904114219 23 185 3.2 3.2 0.00 0.05 0.05 92 1014.9
20260904113714 23 180 0.0 3.2 0.00 0.05 0.05 92 1014.7
20260904113213 23 180 0.0 3.2 0.00 0.05 0.05 92 1014.7
20260904112708 23 127 3.2 4.8 0.00 0.05 0.05 92 1014.7
20260904112204 23 157 0.0 3.2 0.00 0.05 0.05 92 1014.5
20260904111659 23 180 0.0 3.2 0.00 0.05 0.05 92 1014.3
20260904111154 23 140 0.0 4.8 0.00 0.05 0.05 92 1014.2
20260904110650 23 180 0.0 4.8 0.00 0.05 0.05 92 1014.4
20260904110149 23 135 4.8 6.4 0.00 0.05 0.05 92 1014.1
20260904105644 23 135 0.0 3.2 0.00 0.05 0.05 92 1014.2
20260904105139 23 194 0.0 3.2 0.00 0.05 0.05 92 1014.3
20260904104635 23 114 1.6 4.8 0.00 0.05 0.05 92 1014.3
20260904104130 23 132 0.0 3.2 0.00 0.05 0.05 92 1014.0
20260904103626 23 124 4.8 4.8 0.00 0.05 0.05 92 1014.1
20260904103122 23 165 0.0 3.2 0.00 0.05 0.05 92 1014.0
20260904102617 23 150 3.2 6.4 0.00 0.05 0.05 92 1014.0
20260904102113 23 180 1.6 1.6 0.00 0.05 0.05 92 1014.1
20260904101609 23 186 1.6 4.8 0.00 0.05 0.05 92 1014.3
20260904101105 23 165 3.2 6.4 0.00 0.05 0.05 92 1014.1
20260904100600 23 180 1.6 3.2 0.00 0.05 0.05 92 1014.0
20260904100055 23 180 1.6 3.2 0.00 0.05 0.05 92 1013.8
20260904095550 23 135 3.2 4.8 0.00 0.05 0.05 92 1013.9
20260904095045 23 110 6.4 6.4 0.00 0.05 0.05 92 1014.0
20260904094539 23 191 0.0 4.8 0.00 0.05 0.05 92 1013.9
20260904094035 23 145 1.6 3.2 0.00 0.05 0.05 92 1014.0
20260904093532 23 169 3.2 6.4 0.00 0.05 0.05 92 1014.0
20260904093031 23 185 1.6 3.2 0.00 0.05 0.05 92 1014.0
20260904092527 23 113 0.0 4.8 0.00 0.05 0.05 92 1013.7
20260904092024 23 180 3.2 4.8 0.00 0.05 0.05 92 1013.9
20260904091519 22 151 0.0 4.8 0.00 0.05 0.05 92 1013.7
20260904091019 22 166 3.2 4.8 0.00 0.05 0.05 92 1014.0
20260904090514 23 144 3.2 4.8 0.00 0.05 0.05 92 1014.0
20260904090010 23 117 0.0 4.8 0.00 0.05 0.05 92 1014.2
20260904085505 23 166 0.0 3.2 0.00 0.05 0.05 92 1013.9
20260904085004 23 161 3.2 3.2 0.00 0.05 0.05 92 1014.0
20260904084501 23 148 3.2 3.2 0.00 0.05 0.05 92 1014.0
20260904083956 23 161 0.0 6.4 0.00 0.05 0.05 92 1014.3
20260904083452 23 139 3.2 6.4 0.00 0.05 0.05 92 1014.2
20260904082948 23 117 3.2 3.2 0.00 0.05 0.05 92 1014.3
20260904082443 23 129 6.4 6.4 0.00 0.05 0.05 92 1014.1
20260904081937 23 180 3.2 3.2 0.00 0.05 0.05 92 1014.3
20260904081433 23 121 3.2 4.8 0.00 0.05 0.05 92 1014.0
20260904080929 23 187 0.0 3.2 0.00 0.05 0.05 92 1014.0
20260904080424 23 180 1.6 3.2 0.00 0.05 0.05 92 1013.8
20260904075920 23 168 0.0 3.2 0.00 0.05 0.05 92 1013.8
20260904075416 23 194 0.0 1.6 0.00 0.05 0.05 92 1013.8
20260904074914 23 175 1.6 3.2 0.00 0.05 0.05 92 1013.9